This is the latest recevied weather packets stored in our database for station/object I0UVN-10. If no packets are shown the sender has not sent any weather packets the latest 10 day(s).
| Time | Temp. | Humidity | Pressure | Rain* | Wind** | Luminosity | Snow |
|---|---|---|---|---|---|---|---|
| 1788306021 | 27.22° C | 52% | 1021.6 hPa | - | - | - | - |
| 1788304820 | 27.22° C | 50% | 1021.7 hPa | - | - | - | - |
| 1788303620 | 28.89° C | 48% | 1021.5 hPa | - | - | - | - |
| 1788302420 | 28.89° C | 47% | 1021.5 hPa | - | - | - | - |
| 1788301260 | 28.33° C | 48% | 1021.6 hPa | - | - | - | - |
| 1788301220 | 28.33° C | 48% | 1021.6 hPa | - | - | - | - |
| 1788300020 | 28.33° C | 48% | 1021.6 hPa | - | - | - | - |
| 1788298820 | 28.33° C | 48% | 1021.6 hPa | - | - | - | - |
| 1788297620 | 28.89° C | 48% | 1021.6 hPa | - | - | - | - |
| 1788296420 | 28.33° C | 47% | 1021.6 hPa | - | - | - | - |
| 1788295220 | 28.33° C | 48% | 1021.3 hPa | - | - | - | - |
| 1788294019 | 28.33° C | 48% | 1021.4 hPa | - | - | - | - |
| 1788292819 | 28.89° C | 47% | 1021.5 hPa | - | - | - | - |
| 1788291619 | 28.89° C | 47% | 1021.5 hPa | - | - | - | - |
| 1788290419 | 28.33° C | 48% | 1021.5 hPa | - | - | - | - |
| 1788289219 | 28.89° C | 47% | 1021.3 hPa | - | - | - | - |
| 1788288019 | 28.89° C | 46% | 1021.1 hPa | - | - | - | - |
| 1788286818 | 28.89° C | 46% | 1021 hPa | - | - | - | - |
| 1788285618 | 29.44° C | 45% | 1020.9 hPa | - | - | - | - |
| 1788284418 | 29.44° C | 45% | 1020.9 hPa | - | - | - | - |
| 1788283218 | 29.44° C | 43% | 1021 hPa | - | - | - | - |
| 1788282018 | 30° C | 43% | 1021 hPa | - | - | - | - |
| 1788280818 | 30° C | 43% | 1021 hPa | - | - | - | - |
| 1788279612 | 30° C | 42% | 1021 hPa | - | - | - | - |
| 1788278443 | 30° C | 42% | 1021 hPa | - | - | - | - |
* Rain since midnight (hover to see other rain measurements)
** Current wind speed in m/s (hover to see current wind gust speed)